Olney-Noble, IL

3:35 PM CST on December 14, 2017 (GMT -0600)
Olney-Noble

Weather History for KOLY - January, 2014

Change the Weather History Date:

Monday, January 27, 2014

  Actual Average (KEVV) Record (KEVV)
Temperature  
Mean Temperature 14 °F -  
Max Temperature 24 °F 38 °F 68 °F (1944)
Min Temperature 3 °F 22 °F -15 °F (1963)
Degree Days  
Heating Degree Days 52    
Moisture  
Dew Point -2 °F    
Average Humidity 52    
Maximum Humidity 68    
Minimum Humidity 41    
Precipitation  
Precipitation 0.00 in - - ()
Sea Level Pressure  
Sea Level Pressure 30.31 in    
Wind  
Wind Speed 18 mph (NW)    
Max Wind Speed 28 mph    
Max Gust Speed 38 mph    
Visibility 10 miles    
Events      
Averages and records for this station are not official NWS values.
T = Trace of Precipitation, MM = Missing Value Source: NWS Daily Summary

Daily Weather History Graph

Daily Weather History Graph

Search for Another Location

Airport or City:

Trip Planner

Search our weather history database for the weather conditions in past years. The results will help you decide how hot, cold, wet, or windy it might be!

Date:

Astronomy

Jan. 27, 2014 Rise Set
Actual Time 7:02 AM CST 5:08 PM CST
Civil Twilight 6:34 AM CST 5:37 PM CST
Nautical Twilight 6:02 AM CST 6:09 PM CST
Astronomical Twilight 5:30 AM CST 6:40 PM CST
Moon 3:43 AM CST (1/27) 1:55 PM CST (1/27)
Length of Visible Light 11h 02m
Length of Day
10h 06m
Waning Crescent, 14% of the Moon is Illuminated
Jan 27
Waning Crescent
Jan 30
New
Feb 6
First Quarter
Feb 14
Full
Feb 22
Last Quarter

Hourly Weather History & Observations

Time (CST) Temp. Windchill Dew Point Humidity Pressure Visibility Wind Dir Wind Speed Gust Speed Precip Events Conditions
12:15 AM 24.8 °F 9.6 °F 14.0 °F 64% 29.94 in 10.0 mi NW 23.0 mph 36.8 mph N/A   Overcast
12:35 AM 24.8 °F 9.6 °F 14.0 °F 64% 29.95 in 10.0 mi NW 23.0 mph 34.5 mph N/A   Mostly Cloudy
12:55 AM 23.0 °F 6.6 °F 14.0 °F 68% 29.98 in 10.0 mi NW 25.3 mph 28.8 mph N/A   Mostly Cloudy
1:15 AM 23.0 °F 6.0 °F 12.2 °F 63% 29.99 in 10.0 mi NNW 27.6 mph 38.0 mph N/A   Overcast
1:35 AM 21.2 °F 4.2 °F 12.2 °F 68% 30.02 in 10.0 mi NNW 25.3 mph 28.8 mph N/A   Overcast
1:55 AM 21.2 °F 5.2 °F 3.2 °F 46% 30.05 in 10.0 mi NW 21.9 mph 35.7 mph N/A   Unknown
2:15 AM 19.4 °F 4.5 °F 5.0 °F 54% 30.06 in 10.0 mi NNW 17.3 mph 29.9 mph N/A   Overcast
2:35 AM 19.4 °F 5.0 °F 1.4 °F 46% 30.08 in 10.0 mi NW 16.1 mph 28.8 mph N/A   Overcast
2:55 AM 19.4 °F 2.5 °F 3.2 °F 49% 30.08 in 10.0 mi NW 23.0 mph 32.2 mph N/A   Overcast
3:15 AM 17.6 °F 0.9 °F 3.2 °F 53% 30.10 in 10.0 mi NNW 20.7 mph 28.8 mph N/A   Overcast
3:35 AM 17.6 °F 1.3 °F 3.2 °F 53% 30.12 in 10.0 mi NW 19.6 mph 28.8 mph N/A   Overcast
3:55 AM 15.8 °F -1.9 °F 5.0 °F 62% 30.14 in 10.0 mi NW 21.9 mph 29.9 mph N/A   Mostly Cloudy
4:15 AM 14.0 °F -2.5 °F -0.4 °F 53% 30.17 in 10.0 mi NW 17.3 mph 35.7 mph N/A   Mostly Cloudy
4:35 AM 12.2 °F -7.9 °F -4.0 °F 48% 30.19 in 10.0 mi NW 25.3 mph 33.4 mph N/A   Scattered Clouds
4:55 AM 12.2 °F -6.3 °F -4.0 °F 48% 30.20 in 10.0 mi NW 20.7 mph 26.5 mph N/A   Clear
5:15 AM 10.4 °F -8.6 °F -4.0 °F 52% 30.20 in 10.0 mi NNW 20.7 mph 27.6 mph N/A   Clear
5:35 AM 10.4 °F -9.1 °F -5.8 °F 48% 30.21 in 10.0 mi NNW 21.9 mph 29.9 mph N/A   Clear
5:55 AM 10.4 °F -9.1 °F -4.0 °F 52% 30.23 in 10.0 mi NNW 21.9 mph 29.9 mph N/A   Clear
6:15 AM 10.4 °F -7.2 °F -4.0 °F 52% 30.24 in 10.0 mi NNW 17.3 mph 21.9 mph N/A   Clear
6:35 AM 10.4 °F -6.6 °F -4.0 °F 52% 30.25 in 10.0 mi NW 16.1 mph 25.3 mph N/A   Clear
6:55 AM 10.4 °F -7.7 °F -2.2 °F 57% 30.27 in 10.0 mi NNW 18.4 mph 23.0 mph N/A   Clear
7:15 AM 10.4 °F -7.2 °F -0.4 °F 62% 30.28 in 10.0 mi NW 17.3 mph 26.5 mph N/A   Scattered Clouds
7:35 AM 10.4 °F -6.0 °F -0.4 °F 62% 30.29 in 10.0 mi NW 15.0 mph - N/A   Mostly Cloudy
7:55 AM 8.6 °F -9.5 °F -4.0 °F 57% 30.31 in 10.0 mi NW 17.3 mph 25.3 mph N/A   Scattered Clouds
8:15 AM 8.6 °F -10.0 °F -5.8 °F 52% 30.31 in 10.0 mi NNW 18.4 mph 23.0 mph N/A   Clear
8:35 AM 8.6 °F -8.9 °F -5.8 °F 52% 30.33 in 10.0 mi NW 16.1 mph - N/A   Clear
8:55 AM 10.4 °F -7.2 °F -4.0 °F 52% 30.33 in 10.0 mi NW 17.3 mph 21.9 mph N/A   Clear
9:15 AM 10.4 °F -5.4 °F -4.0 °F 52% 30.34 in 10.0 mi NW 13.8 mph 24.2 mph N/A   Clear
9:35 AM 12.2 °F -4.3 °F -2.2 °F 53% 30.34 in 10.0 mi NW 16.1 mph 24.2 mph N/A   Clear
9:55 AM 10.4 °F -6.0 °F -4.0 °F 52% 30.35 in 10.0 mi NNW 15.0 mph 20.7 mph N/A   Scattered Clouds
10:15 AM 12.2 °F -2.5 °F -4.0 °F 48% 30.36 in 10.0 mi NW 12.7 mph 20.7 mph N/A   Clear
10:35 AM 12.2 °F -2.5 °F -4.0 °F 48% 30.36 in 10.0 mi NW 12.7 mph 19.6 mph N/A   Clear
10:55 AM 14.0 °F -3.0 °F -4.0 °F 45% 30.36 in 10.0 mi WNW 18.4 mph 23.0 mph N/A   Clear
11:15 AM 14.0 °F -2.5 °F -4.0 °F 45% 30.36 in 10.0 mi WNW 17.3 mph 21.9 mph N/A   Clear
11:35 AM 14.0 °F -3.0 °F -4.0 °F 45% 30.36 in 10.0 mi WNW 18.4 mph 23.0 mph N/A   Clear
11:55 AM 14.0 °F -0.8 °F -5.8 °F 41% 30.36 in 10.0 mi NW 13.8 mph 20.7 mph N/A   Clear
12:15 PM 14.0 °F -2.0 °F -4.0 °F 45% 30.35 in 10.0 mi NW 16.1 mph 20.7 mph N/A   Clear
12:35 PM 14.0 °F -1.4 °F -4.0 °F 45% 30.35 in 10.0 mi NW 15.0 mph 19.6 mph N/A   Clear
12:55 PM 14.0 °F 0.5 °F -4.0 °F 45% 30.35 in 10.0 mi NW 11.5 mph 20.7 mph N/A   Clear
1:15 PM 15.8 °F 3.4 °F -4.0 °F 41% 30.34 in 10.0 mi NW 10.4 mph 20.7 mph N/A   Clear
1:35 PM 15.8 °F -0.2 °F -4.0 °F 41% 30.33 in 10.0 mi WNW 17.3 mph 21.9 mph N/A   Clear
1:55 PM 15.8 °F 2.1 °F -4.0 °F 41% 30.34 in 10.0 mi WNW 12.7 mph 23.0 mph N/A   Clear
2:15 PM 17.6 °F 2.7 °F -2.2 °F 42% 30.34 in 10.0 mi NW 16.1 mph 19.6 mph N/A   Clear
2:35 PM 15.8 °F 0.9 °F -2.2 °F 45% 30.35 in 10.0 mi NW 15.0 mph 21.9 mph N/A   Clear
2:55 PM 14.0 °F -0.2 °F -4.0 °F 45% 30.36 in 10.0 mi NW 12.7 mph 24.2 mph N/A   Clear
3:15 PM 15.8 °F 1.4 °F -4.0 °F 41% 30.36 in 10.0 mi NW 13.8 mph 21.9 mph N/A   Clear
3:35 PM 14.0 °F 0.5 °F -5.8 °F 41% 30.37 in 10.0 mi NW 11.5 mph - N/A   Clear
3:55 PM 14.0 °F -2.0 °F -4.0 °F 45% 30.37 in 10.0 mi WNW 16.1 mph - N/A   Clear
4:15 PM 14.0 °F -0.8 °F -4.0 °F 45% 30.38 in 10.0 mi NNW 13.8 mph 18.4 mph N/A   Clear
4:35 PM 12.2 °F -3.1 °F -4.0 °F 48% 30.39 in 10.0 mi NW 13.8 mph 20.7 mph N/A   Clear
4:55 PM 12.2 °F -1.8 °F -4.0 °F 48% 30.39 in 10.0 mi NW 11.5 mph 20.7 mph N/A   Clear
5:15 PM 12.2 °F -1.8 °F -4.0 °F 48% 30.40 in 10.0 mi NW 11.5 mph - N/A   Clear
5:35 PM 10.4 °F -3.3 °F -4.0 °F 52% 30.41 in 10.0 mi NW 10.4 mph - N/A   Clear
5:55 PM 10.4 °F -3.3 °F -4.0 °F 52% 30.42 in 10.0 mi NW 10.4 mph - N/A   Clear
6:15 PM 10.4 °F -4.8 °F -4.0 °F 52% 30.43 in 10.0 mi NW 12.7 mph - N/A   Clear
6:35 PM 10.4 °F -4.1 °F -4.0 °F 52% 30.43 in 10.0 mi NNW 11.5 mph - N/A   Clear
6:55 PM 10.4 °F -4.8 °F -4.0 °F 52% 30.44 in 10.0 mi NNW 12.7 mph 17.3 mph N/A   Clear
7:15 PM 8.6 °F -5.5 °F -5.8 °F 52% 30.46 in 10.0 mi North 10.4 mph 19.6 mph N/A   Clear
7:35 PM 8.6 °F -8.3 °F -5.8 °F 52% 30.45 in 10.0 mi NNW 15.0 mph 20.7 mph N/A   Clear
7:55 PM 8.6 °F -4.7 °F -5.8 °F 52% 30.47 in 10.0 mi NNW 9.2 mph 16.1 mph N/A   Clear
8:15 PM 6.8 °F -6.9 °F -5.8 °F 56% 30.48 in 10.0 mi North 9.2 mph 18.4 mph N/A   Clear
8:35 PM 6.8 °F -8.6 °F -5.8 °F 56% 30.48 in 10.0 mi NNW 11.5 mph 17.3 mph N/A   Clear
8:55 PM 6.8 °F -10.0 °F -5.8 °F 56% 30.48 in 10.0 mi NNW 13.8 mph - N/A   Clear
9:15 PM 5.0 °F -10.8 °F -5.8 °F 61% 30.48 in 10.0 mi NNW 11.5 mph 18.4 mph N/A   Clear
9:35 PM 5.0 °F -10.0 °F -7.6 °F 56% 30.48 in 10.0 mi NNW 10.4 mph - N/A   Clear
9:55 PM 5.0 °F -10.0 °F -5.8 °F 61% 30.49 in 10.0 mi NNW 10.4 mph - N/A   Clear
10:15 PM 5.0 °F -5.6 °F -7.6 °F 56% 30.49 in 10.0 mi North 5.8 mph - N/A   Clear
10:35 PM 5.0 °F -6.9 °F -5.8 °F 61% 30.50 in 10.0 mi NNW 6.9 mph - N/A   Clear
10:55 PM 5.0 °F -8.1 °F -7.6 °F 56% 30.49 in 10.0 mi NNW 8.1 mph - N/A   Clear
11:15 PM 3.2 °F -10.3 °F -7.6 °F 61% 30.49 in 10.0 mi NNW 8.1 mph - N/A   Clear
11:35 PM 3.2 °F -7.8 °F -7.6 °F 61% 30.50 in 10.0 mi North 5.8 mph - N/A   Clear
11:55 PM 3.2 °F -7.8 °F -7.6 °F 61% 30.50 in 10.0 mi North 5.8 mph - N/A   Clear